Stations météo

réclame
Mon MeteoGroup
Reus, Espagne (8175): Température de l'air & dewpoint: 05.12.2017 23:00:00 - 11.12.2017 23:00:00 (CET)Reus, Espagne (8175): Vitesse du vent: 05.12.2017 23:00:00 - 11.12.2017 23:00:00 (CET)Reus, Espagne (8175): Direction du vent: 05.12.2017 23:00:00 - 11.12.2017 23:00:00 (CET)Reus, Espagne (8175): reduced air pressure: 05.12.2017 23:00:00 - 11.12.2017 23:00:00 (CET)Reus, Espagne (8175): visibility: 05.12.2017 23:00:00 - 11.12.2017 23:00:00 (CET)
Date & Time tt [°C] td [°C] ff [km/h] ff [knt] dd ppp [hPa] vv [km]
11.12.2017 23:00:00 6,4 0,4 4 2 W 1002,8 30
11.12.2017 22:00:00 7,8 0,6 11 6 W 1001,6 30
11.12.2017 21:00:00 9,1 0,7 9 5 S 1000,7 30
11.12.2017 20:00:00 8,9 1,4 4 2 W 999,1 30
11.12.2017 19:00:00 9,3 2,5 2 1 E 997,3 30
11.12.2017 18:00:00 11,3 2,9 9 5 SW 996,0 30
11.12.2017 17:00:00 13,2 3,5 11 6 W 994,2 30
11.12.2017 16:00:00 13,9 3,6 28 15 W 992,9 30
11.12.2017 15:00:00 13,9 4,4 16 9 WSW 991,5 30
11.12.2017 14:00:00 14,2 5,4 16 9 W 991,0 30
11.12.2017 13:00:00 14,3 6,2 15 8 W 990,8 30
11.12.2017 12:00:00 13,2 7,6 18 10 W 991,6 30
11.12.2017 11:00:00 13,3 8,8 21 11 WSW 991,1 30
11.12.2017 10:00:00 13,1 8,7 21 11 W 990,4 30
11.12.2017 09:00:00 13,6 11,6 24 13 WSW 989,7 6
11.12.2017 08:00:00 15,6 11,0 22 12 SW 988,9 12
11.12.2017 07:00:00 15,7 11,2 22 12 SW 989,1 11
11.12.2017 06:00:00 15,8 10,9 24 13 SSW 989,9 15
11.12.2017 05:00:00 15,4 10,1 18 10 SW 991,0 21
11.12.2017 04:00:00 15,7 10,2 29 16 SSW 992,0 18
11.12.2017 03:00:00 14,8 10,1 26 14 SW 993,9 22
11.12.2017 02:00:00 14,3 11,2 22 12 SW 994,4 16
11.12.2017 01:00:00 13,8 11,1 22 12 SW 996,3 13
11.12.2017 00:00:00 10,6 7,8 2 1 SSW 997,6 30
10.12.2017 23:00:00 11,6 7,2 2 1 S 998,3 30
10.12.2017 22:00:00 13,8 7,0 8 4 S 999,8 30
10.12.2017 21:00:00 14,9 6,5 11 6 WNW 1001,1 30
10.12.2017 20:00:00 14,8 6,7 9 5 WNW 1002,0 30
10.12.2017 19:00:00 14,1 7,0 9 5 W 1003,3 30
10.12.2017 18:00:00 13,6 7,0 5 3 S 1004,1 30
10.12.2017 17:00:00 15,5 6,9 11 6 S 1004,7 30
10.12.2017 16:00:00 18,1 6,8 15 8 SW 1006,0 30
10.12.2017 15:00:00 17,9 6,8 22 12 W 1007,1 30
10.12.2017 14:00:00 18,1 6,6 18 10 WSW 1008,0 30
10.12.2017 13:00:00 18,1 6,5 22 12 SW 1009,3 30
10.12.2017 12:00:00 17,5 6,8 13 7 SW 1010,7 30
10.12.2017 11:00:00 16,7 6,9 22 12 WSW 1011,9 30
10.12.2017 10:00:00 15,7 7,1 15 8 WSW 1012,5 30
10.12.2017 09:00:00 13,3 7,2 8 4 SW 1012,6 30
10.12.2017 08:00:00 13,9 7,3 18 10 WSW 1012,7 30
10.12.2017 07:00:00 7,5 5,1 8 4 E 1013,7 30
10.12.2017 06:00:00 6,6 5,9 5 3 NW 1014,1 30
10.12.2017 05:00:00 6,3 4,9 8 4 NNE 1015,1 30
10.12.2017 04:00:00 8,1 6,7 0 0 N 1015,9 30
10.12.2017 03:00:00 8,7 7,4 4 2 NNW 1016,9 30
10.12.2017 02:00:00 9,1 7,8 4 2 WSW 1017,7 30
10.12.2017 01:00:00 9,1 7,1 4 2 NW 1019,3 30
10.12.2017 00:00:00 9,2 5,8 11 6 W 1020,1 12
09.12.2017 23:00:00 8,3 4,4 0 0 N 1020,8 17
09.12.2017 22:00:00 9,3 1,9 8 4 W 1021,3 19
09.12.2017 21:00:00 8,3 1,3 4 2 NNW 1021,6 30
09.12.2017 20:00:00 6,6 0,8 8 4 ENE 1021,4 13
09.12.2017 19:00:00 7,7 0,8 4 2 WNW 1021,8 30
09.12.2017 18:00:00 9,4 0,6 9 5 W 1021,9 30
09.12.2017 17:00:00 10,0 1,0 11 6 WSW 1021,7 30
09.12.2017 16:00:00 13,1 0,3 4 2 WNW 1021,7 30
09.12.2017 15:00:00 13,8 0,3 18 10 WNW 1021,6 30
09.12.2017 14:00:00 12,6 0,5 4 2 NNW 1022,4 30
09.12.2017 13:00:00 13,7 -0,1 4 2 E 1022,8 30
09.12.2017 12:00:00 13,3 -0,3 11 6 W 1023,1 30
09.12.2017 11:00:00 11,9 1,3 4 2 E 1023,5 30
09.12.2017 10:00:00 9,8 1,4 5 3 ENE 1022,9 30
09.12.2017 09:00:00 7,9 0,3 13 7 WNW 1022,5 30
09.12.2017 08:00:00 7,3 0,0 11 6 W 1021,6 30
09.12.2017 07:00:00 8,8 0,6 22 12 WNW 1021,1 30
09.12.2017 06:00:00 6,0 0,1 0 0 N 1021,0 30
09.12.2017 05:00:00 8,3 0,4 15 8 NW 1020,9 30
09.12.2017 04:00:00 10,1 0,3 29 16 NW 1020,6 30
09.12.2017 03:00:00 9,9 0,6 29 16 NW 1020,5 30
09.12.2017 02:00:00 10,2 0,4 29 16 WNW 1020,8 30
09.12.2017 01:00:00 8,1 1,4 8 4 SW 1021,4 30
09.12.2017 00:00:00 8,1 3,4 5 3 SSW 1021,7 30
08.12.2017 23:00:00 10,4 3,5 4 2 NNE 1021,2 30
08.12.2017 22:00:00 9,5 4,0 8 4 SW 1021,8 30
08.12.2017 21:00:00 9,4 4,2 4 2 S 1021,6 30
08.12.2017 20:00:00 6,6 2,2 2 1 E 1021,7 30
08.12.2017 19:00:00 11,1 4,2 4 2 WNW 1021,4 30
08.12.2017 18:00:00 13,5 4,8 8 4 NNW 1021,1 13
08.12.2017 17:00:00 14,2 5,1 5 3 NE 1020,2 30
08.12.2017 16:00:00 14,6 5,2 13 7 NW 1020,1 30
08.12.2017 15:00:00 14,1 5,1 9 5 N 1020,1 30
08.12.2017 14:00:00 13,7 4,7 13 7 NNE 1020,9 30
08.12.2017 13:00:00 12,9 4,0 8 4 WNW 1021,7 30
08.12.2017 12:00:00 12,9 2,6 22 12 SW 1022,2 30
08.12.2017 11:00:00 11,4 1,3 5 3 NNW 1023,3 18
08.12.2017 10:00:00 8,7 1,0 0 0 N 1023,8 25
08.12.2017 09:00:00 5,4 0,2 4 2 NE 1024,0 16
08.12.2017 08:00:00 4,3 -0,7 8 4 NNE 1024,2 15
08.12.2017 07:00:00 2,5 -1,5 9 5 N 1024,7 30
08.12.2017 06:00:00 3,3 -1,1 4 2 NE 1025,0 16
08.12.2017 05:00:00 1,9 -1,9 8 4 NE 1025,5 17
08.12.2017 04:00:00 2,3 -2,1 4 2 NNE 1025,8 30
08.12.2017 03:00:00 1,3 -2,5 5 3 N 1026,5 27
08.12.2017 02:00:00 1,7 -2,4 2 1 N 1026,6 18
08.12.2017 01:00:00 2,4 -1,7 9 5 N 1027,4 23
08.12.2017 00:00:00 3,5 -1,6 5 3 N 1028,0 18
07.12.2017 23:00:00 2,4 -1,0 8 4 NE 1028,4 16
07.12.2017 22:00:00 3,2 -0,4 8 4 NNE 1028,6 13
07.12.2017 21:00:00 3,4 -0,1 0 0 N 1028,8 12
07.12.2017 20:00:00 4,9 0,7 4 2 N 1028,9 10
07.12.2017 19:00:00 6,6 2,6 8 4 NNW 1028,8 6
07.12.2017 18:00:00 9,0 3,1 4 2 NNE 1028,7 6
07.12.2017 17:00:00 12,5 0,8 4 2 S 1028,5 30
07.12.2017 16:00:00 13,6 0,4 8 4 WSW 1028,8 30
07.12.2017 15:00:00 14,2 3,7 8 4 SW 1029,0 30
07.12.2017 14:00:00 14,4 5,3 8 4 SW 1029,5 26
07.12.2017 13:00:00 15,1 6,8 8 4 SW 1030,2 30
07.12.2017 12:00:00 14,7 7,9 11 6 SW 1031,2 23
07.12.2017 11:00:00 12,1 6,2 2 1 ENE 1031,9 16
07.12.2017 10:00:00 8,1 4,9 4 2 NNE 1031,7 10
07.12.2017 09:00:00 4,3 2,8 9 5 NNE 1031,5 7
07.12.2017 08:00:00 3,0 2,1 8 4 NNE 1031,4 7
07.12.2017 07:00:00 2,7 1,9 8 4 NE 1031,2 10
07.12.2017 06:00:00 3,6 2,3 5 3 NNE 1031,1 6
07.12.2017 05:00:00 3,8 2,7 9 5 NNE 1031,5 -
07.12.2017 04:00:00 3,3 2,1 8 4 NNE 1031,8 8
07.12.2017 03:00:00 3,9 3,0 5 3 NNE 1031,9 10
07.12.2017 02:00:00 3,5 2,7 8 4 NNE 1032,2 8
07.12.2017 01:00:00 3,3 2,7 5 3 N 1032,8 7
07.12.2017 00:00:00 3,6 2,9 11 6 N 1033,3 6
06.12.2017 23:00:00 3,1 2,0 4 2 NNE 1033,2 3,0
06.12.2017 22:00:00 4,3 3,7 9 5 N 1033,3 8
06.12.2017 21:00:00 5,1 4,0 5 3 N 1033,2 6
06.12.2017 20:00:00 6,9 5,4 8 4 NW 1032,8 10
06.12.2017 19:00:00 7,5 5,7 5 3 NW 1032,6 12
06.12.2017 18:00:00 8,6 5,8 2 1 W 1032,6 17
06.12.2017 17:00:00 12,3 7,6 5 3 SSW 1032,4 30
06.12.2017 16:00:00 14,1 7,5 11 6 S 1032,3 30
06.12.2017 15:00:00 14,7 6,9 13 7 SSW 1032,5 30
06.12.2017 14:00:00 14,7 6,1 13 7 SSW 1032,9 30
06.12.2017 13:00:00 14,7 5,8 8 4 SSW 1033,7 24
06.12.2017 12:00:00 12,6 3,9 0 0 N 1034,7 18
06.12.2017 11:00:00 10,9 2,4 5 3 NE 1035,3 14
06.12.2017 10:00:00 7,3 2,5 5 3 NNE 1035,3 13
06.12.2017 09:00:00 2,3 1,0 5 3 NNE 1035,2 30
06.12.2017 08:00:00 0,2 -0,7 0 0 N 1035,1 30
06.12.2017 07:00:00 -0,1 -1,3 5 3 NNE 1035,0 24
06.12.2017 06:00:00 0,6 -1,4 5 3 NNE 1035,0 30
06.12.2017 05:00:00 0,7 -1,3 9 5 NNE 1035,0 30
06.12.2017 04:00:00 0,9 -1,5 5 3 N 1035,3 30
06.12.2017 03:00:00 1,5 -1,0 5 3 NNE 1035,3 30
06.12.2017 02:00:00 1,2 -0,9 8 4 NNE 1035,3 30
06.12.2017 01:00:00 1,4 -0,6 5 3 NNE 1035,8 30
06.12.2017 00:00:00 2,8 0,4 15 8 N 1036,0 20
05.12.2017 23:00:00 2,5 0,0 13 7 N 1035,9 22

tt = Température de l'air
td = dewpoint
ff = Vitesse du vent
dd = Direction du vent
ppp = reduced air pressure
vv = visibility

stations d'obs. à proximité